Location: ??????
(41.3794°N, 22.5014°E)
Time: 08:17:44
(UTC+00:00)

DEBRIS - Pass Details

Date: 30 November 2020
Orbit: 310 x 15212 km, 49.4° (Epoch: 17 January)

Event Time Altitude Azimuth Distance (km) Brightness Sun altitude
Rises 16:57:42 0° 289° (WNW) 8,323 9.8 -21.3°
Reaches altitude 10° 17:05:50 10° 294° (WNW) 5,187 8.5 -22.8°
Maximum altitude 17:16:05 49° 8° (N) 1,079 4.1 -24.7°
Enters shadow 17:16:23 48° 20° (NNE) 1,044 3.9 -24.7°
